Location: Gellin
(53.4498°N, 14.3207°E)
Time: 01:55:28
(UTC+00:00)

Cosmos 2369 Rocket - Pass Details

Date: 03 March 2021
Orbit: 829 x 852 km, 71.0° (Epoch: 11 April)

Event Time Altitude Azimuth Distance (km) Brightness Sun altitude
Rises 17:58:39 0° 313° (NW) 3,383 6.2 -11.8°
Reaches altitude 10° 18:02:30 10° 340° (NNW) 2,448 5.0 -12.4°
Maximum altitude 18:05:14 14° 9° (N) 2,202 4.3 -12.8°
Drops below altitude 10° 18:07:58 10° 39° (NE) 2,449 4.3 -13.2°
Enters shadow 18:09:20 - 50° (NE) 2,724 4.4 -13.4°
